Temperature
20 20 19 19 19 19 18 18 18 18 18 18 18 17 17 17 17 17 17 17 17 17 16 16 16 16 16 16 16 16 16 16 16 16 16 16 16 16 16 16 15 15 16
19 19 19 19 19 18 18 18 18 18 18 18 17 17 17 17 17 17 17 16 16 16 16 16 16 16 16 16 16 16 15 15 15 15 15 15 15 15 15 15 15 15 15
19 19 19 18 18 18 18 18 18 17 17 17 17 17 17 17 17 17 16 16 16 16 16 16 16 15 15 15 15 15 15 15 15 15 15 15 15 15 15 15 15 14 14
19 19 18 18 18 18 18 18 17 17 17 17 17 17 17 16 16 16 16 16 16 16 15 15 15 15 15 15 15 15 15 15 14 14 14 14 14 14 14 14 14 14 14
19 18 18 18 18 18 18 17 17 17 17 17 16 16 16 16 16 16 16 16 15 15 15 15 15 15 15 15 14 14 14 14 14 14 14 14 14 13 13 14 14 13 13
18 18 18 18 17 17 17 17 17 17 16 16 16 16 16 16 16 16 15 15 15 15 15 15 15 14 14 14 14 14 14 14 14 14 13 13 13 13 13 13 13 13 13
18 17 17 17 17 17 17 17 17 16 16 16 16 16 15 15 15 15 15 15 15 15 14 14 14 14 14 14 14 14 13 13 13 13 13 12 12 12 12 12 12 12 12
17 17 17 16 16 16 16 16 16 16 15 15 15 15 15 15 15 15 15 15 14 14 14 14 14 13 13 13 13 13 13 12 12 12 12 12 12 12 12 11 11 11 11
17 17 16 16 16 16 16 16 15 15 15 15 15 14 14 14 14 14 14 14 14 13 13 13 13 13 13 12 12 12 12 12 11 11 11 11 11 11 11 11 11 11 11
16 16 16 16 16 16 15 15 15 15 15 14 14 14 14 14 14 14 14 13 13 12 12 12 12 12 12 12 11 11 11 11 11 11 11 10 10 10 10 10 10 11 11
16 16 16 16 15 15 15 15 14 14 14 14 13 13 13 13 13 13 13 13 12 12 11 11 11 11 11 11 11 11 11 10 10 10 10 10 10 10 9 9 9 9 9
15 15 15 15 15 15 15 14 14 14 13 13 13 12 12 12 12 12 12 12 12 11 11 11 11 11 11 11 10 10 10 10 10 10 9 9 9 9 8 8 8 8 8
15 15 15 14 14 14 14 13 13 13 13 12 12 12 11 11 11 12 11 11 11 11 10 10 10 10 10 10 10 9 9 9 9 9 9 8 8 8 8 8 8 8 8
14 14 14 14 13 13 13 13 13 12 12 12 12 11 11 11 11 11 11 10 10 10 10 9 9 9 9 9 9 8 8 8 8 8 8 8 8 8 8 8 8 8 7
14 13 13 13 13 13 12 12 12 12 11 11 11 11 11 10 10 10 10 10 10 9 9 9 9 9 9 8 8 8 8 8 8 8 8 8 8 8 7 7 7 7 7
13 13 13 13 12 12 12 11 11 11 11 11 11 10 10 10 10 10 10 10 9 9 9 9 9 9 8 8 8 8 8 7 7 7 7 7 7 7 7 7 7 7 7
13 12 12 12 12 11 11 11 10 10 10 10 10 10 10 9 9 9 9 9 9 9 9 8 8 8 8 8 8 7 7 7 7 7 7 7 7 7 7 7 7 7 7
12 12 12 12 11 11 11 11 10 10 10 9 9 9 9 9 9 9 8 8 8 8 8 8 8 8 7 7 7 7 7 6 6 6 6 6 6 6 6 6 6 6 6
12 12 12 11 11 11 11 10 10 10 10 9 9 8 8 8 8 8 8 8 8 8 8 7 7 7 7 6 6 6 6 6 6 6 6 6 6 6 6 6 6 5 6
11 11 11 11 11 11 11 10 10 10 9 9 9 8 8 8 8 8 8 8 8 7 7 7 7 6 6 6 6 6 6 6 5 6 5 5 6 6 6 6 6 6 6
11 11 11 11 11 11 10 10 10 9 9 9 8 8 8 8 8 7 7 7 7 7 6 6 6 6 6 6 5 5 5 5 5 5 5 5 5 5 5 5 5 5 5
11 11 11 11 10 10 10 9 9 9 9 8 8 8 7 8 8 7 7 7 7 6 6 6 6 6 5 5 5 5 5 5 5 5 5 5 5 5 5 5 5 5 5
11 11 10 10 10 9 9 9 9 9 9 8 8 8 7 7 7 7 7 6 6 6 6 5 5 5 5 5 5 5 5 4 4 4 4 4 4 5 5 5 4 5 5
10 10 10 10 9 9 9 9 9 9 9 8 8 7 7 7 7 7 6 6 6 5 5 5 5 5 4 4 4 4 4 4 4 4 3 4 4 4 4 4 4 4 4
10 10 10 9 9 9 9 9 9 8 8 8 8 7 7 7 7 6 6 6 5 5 5 5 5 4 4 4 4 4 4 4 4 3 3 3 3 3 3 4 4 4 4
10 10 9 9 9 9 9 8 8 8 8 8 7 7 7 7 6 6 6 5 5 5 5 5 4 4 4 4 4 4 4 4 3 3 3 3 3 3 3 3 4 4 4
Wind_Speed
11 10 10 10 10 10 9 9 9 8 8 8 8 8 8 7 7 8 8 8 8 7 7 7 7 7 6 5 5 6 6 6 8 7 5 4 3 4 4 3 4 3 1
9 9 9 8 8 8 8 7 7 7 7 7 6 6 7 6 6 7 7 7 7 6 6 6 7 6 7 6 5 5 5 6 7 7 6 4 3 3 3 3 3 2 1
8 8 7 7 7 7 6 6 6 5 5 4 4 4 5 5 5 5 5 5 5 4 4 4 5 4 5 4 4 4 4 4 4 5 5 3 3 3 2 2 1 0 1
7 7 6 6 5 5 5 5 5 5 4 4 4 3 3 3 3 3 3 4 3 2 2 2 3 3 3 3 3 3 3 3 3 3 4 3 3 3 2 2 1 1 1
7 6 5 5 4 4 4 4 4 4 4 4 4 3 3 3 2 2 3 3 3 2 1 0 0 2 4 2 2 2 2 2 2 2 3 2 2 1 2 2 1 1 0
7 6 5 5 5 4 3 4 4 4 4 3 4 3 3 2 3 3 1 3 2 2 2 2 2 4 5 5 6 6 5 2 2 2 1 1 2 2 2 2 2 2 1
7 6 6 5 5 5 4 4 4 4 4 4 4 4 4 5 6 5 4 4 4 4 3 3 3 4 3 4 5 5 7 7 5 2 2 3 3 3 3 2 2 2 2
7 7 6 5 6 6 5 5 5 5 5 4 4 5 5 6 7 6 5 6 6 6 6 5 5 5 5 4 5 7 8 8 7 5 5 5 5 5 4 2 2 1 1
8 7 6 6 7 6 6 6 5 6 6 5 5 5 6 6 7 6 4 6 6 7 7 7 6 6 7 5 6 7 7 7 10 11 10 10 11 11 8 3 2 1 2
7 7 7 7 7 7 6 6 6 6 7 7 7 7 8 7 8 7 4 5 6 5 6 7 10 9 8 7 5 5 6 5 6 8 8 8 9 10 10 7 5 3 3
8 8 8 8 7 7 7 7 8 8 8 8 9 8 8 8 8 9 7 5 5 5 6 6 7 10 10 9 7 6 5 3 5 6 7 7 7 7 8 9 9 6 5
9 9 8 8 7 7 8 8 8 9 9 8 8 8 7 8 9 10 11 9 7 7 6 6 7 9 11 11 9 6 4 3 5 6 6 6 7 7 7 8 9 9 8
10 9 9 9 8 8 8 8 7 6 6 6 6 7 6 6 8 12 12 11 10 8 8 9 8 7 8 9 8 6 4 5 6 6 6 6 6 6 5 5 6 6 6
10 9 9 9 9 9 7 6 6 5 6 6 6 6 6 6 5 5 6 8 9 8 8 8 8 6 7 7 6 6 7 7 6 6 6 6 6 6 6 6 5 5 5
10 9 9 9 10 10 10 9 8 8 6 5 6 6 6 6 6 8 6 6 6 5 5 6 6 6 6 7 7 7 6 6 6 6 6 6 6 6 6 6 5 5 5
9 8 8 8 9 9 11 11 18 15 17 16 13 10 10 10 9 11 11 10 7 2 4 7 7 7 7 7 6 7 7 7 6 6 6 6 6 6 5 5 5 5 5
8 8 7 8 9 9 9 10 10 12 16 17 15 14 13 11 11 10 9 8 5 2 6 8 7 7 7 6 6 6 7 6 6 6 6 5 5 5 5 5 5 6 5
9 9 8 8 8 9 9 9 9 10 10 9 11 13 12 11 10 7 4 5 6 5 7 7 7 7 6 6 6 6 6 5 5 5 5 5 5 5 5 5 5 7 6
8 8 8 8 8 8 8 8 9 10 9 9 8 9 9 9 9 6 3 6 7 7 7 7 7 6 6 6 6 6 6 5 6 5 5 5 5 5 5 5 5 4 5
8 8 8 9 9 8 8 8 9 9 8 8 7 7 6 6 6 6 6 7 7 7 7 7 7 7 6 6 5 5 5 5 4 4 5 5 5 5 5 5 6 6 6
9 9 9 8 8 8 8 8 8 8 8 8 7 6 3 5 6 6 6 6 6 7 6 6 6 6 6 5 4 4 5 4 4 5 5 5 5 5 5 5 5 6 6
8 8 8 8 8 8 8 8 8 8 9 9 8 7 2 4 6 6 6 6 6 6 6 5 5 5 5 5 4 4 4 4 5 5 5 5 4 5 5 6 6 6 6
8 9 9 8 8 8 8 8 8 8 8 8 7 6 5 5 6 6 6 5 5 5 5 5 5 5 5 5 5 5 5 5 5 6 5 5 5 5 5 5 6 7 7
8 9 9 8 8 7 7 7 7 7 7 7 6 6 5 5 5 5 5 5 4 5 4 4 5 6 6 5 5 6 7 7 7 6 6 6 6 6 5 5 6 7 7
8 8 8 8 7 7 7 7 7 7 7 6 6 5 5 5 5 5 4 4 4 4 4 4 4 5 5 6 6 7 8 8 8 8 7 6 6 6 6 7 6 7 7
8 9 8 8 7 7 7 7 6 7 6 6 5 5 4 4 4 4 4 3 3 4 3 3 4 4 4 4 6 7 6 6 7 9 8 7 6 6 7 7 7 7 7
Wind_Direction
199 203 211 213 211 212 216 220 220 225 227 225 223 223 222 226 228 229 233 232 232 235 238 238 241 248 250 254 253 251 251 253 261 268 275 282 279 286 302 289 270 268 216
194 198 205 211 209 209 212 216 218 219 222 222 220 220 221 225 228 233 236 234 233 234 234 238 244 243 245 254 254 250 250 251 255 265 275 282 282 274 274 288 297 282 353
184 188 195 201 200 202 205 205 206 210 214 211 207 217 226 226 226 232 230 231 231 233 240 244 254 258 264 263 260 258 255 252 250 254 266 278 282 285 270 249 257 315 299
168 173 179 186 184 187 192 195 196 191 189 193 198 206 216 218 212 212 215 215 212 216 230 252 272 279 282 287 277 274 271 260 247 249 259 264 268 279 276 267 255 217 264
149 150 155 158 162 168 173 174 173 174 179 179 180 183 187 189 193 186 190 189 185 184 184 176 18 53 34 6 330 317 299 287 277 265 262 265 276 277 273 269 261 257 167
140 139 143 145 146 145 152 155 155 155 157 158 153 151 141 124 68 64 87 124 123 124 114 92 88 80 74 61 48 36 18 344 311 297 294 296 318 308 300 283 279 283 286
129 128 128 130 129 133 138 132 135 136 132 127 124 121 106 71 70 71 62 94 91 83 84 77 70 64 65 71 68 62 45 31 19 360 7 343 342 345 333 320 338 322 301
121 118 117 119 120 120 119 117 117 118 116 111 110 110 103 82 75 81 83 89 80 70 64 61 63 53 46 59 67 63 55 46 46 57 58 39 27 9 355 350 329 271 206
110 106 108 111 110 111 110 107 109 110 107 104 101 99 98 84 68 74 92 97 88 76 66 56 55 60 42 55 81 76 71 67 72 75 70 65 55 39 17 6 347 324 29
108 106 103 102 103 108 110 109 109 108 104 100 92 85 85 80 59 52 65 103 97 89 76 64 56 53 42 43 78 81 75 63 65 70 68 63 57 51 41 27 11 11 24
109 104 101 100 101 104 104 105 107 104 99 93 89 83 79 75 72 56 47 86 98 92 82 73 60 55 53 46 51 63 55 57 74 71 68 60 54 48 44 42 33 28 29
106 104 101 97 98 100 100 100 103 107 105 100 96 88 78 72 65 63 60 62 69 88 85 83 77 69 67 61 63 49 16 26 72 69 63 55 48 44 44 45 44 48 50
108 104 101 97 93 95 99 102 103 105 108 107 104 98 91 86 82 77 74 72 72 86 87 83 80 79 91 78 62 33 33 56 60 61 59 54 52 48 46 52 58 61 65
112 108 106 101 94 86 83 86 90 95 102 106 103 99 95 87 80 87 94 98 105 103 102 110 108 88 87 87 78 61 56 48 47 56 57 54 50 48 43 35 35 37 42
115 114 110 102 96 86 74 57 66 60 58 83 97 99 100 93 60 47 74 85 89 93 107 101 90 85 77 72 70 65 60 59 56 55 53 51 48 46 41 34 28 27 30
121 120 116 113 109 106 101 83 57 62 61 59 60 77 80 83 85 76 71 68 66 48 98 90 83 77 73 69 66 65 60 53 48 48 46 41 38 37 35 28 22 22 24
124 123 120 118 117 117 116 112 103 80 68 64 67 74 84 88 86 88 90 86 67 48 88 83 78 72 69 65 61 60 57 51 37 43 43 37 32 29 27 23 20 19 21
125 119 123 123 121 121 120 119 118 115 108 92 77 79 88 89 85 85 114 123 91 80 81 81 78 72 66 60 58 56 53 50 43 38 37 31 26 23 20 16 21 12 6
123 122 120 118 117 116 117 117 115 112 110 109 109 101 105 112 101 76 64 86 87 84 81 79 75 70 64 60 55 52 49 45 38 31 36 27 20 17 13 6 13 7 340
111 109 119 122 119 118 118 118 117 117 114 111 107 106 121 122 102 93 85 80 81 80 78 76 72 68 64 59 56 51 51 48 38 33 30 19 12 7 4 360 358 352 353
123 122 124 119 117 117 118 118 119 118 114 108 104 89 40 108 101 94 88 83 80 78 76 72 70 67 64 57 50 45 43 42 35 24 17 8 5 1 354 354 353 349 350
124 126 122 118 118 117 118 121 121 119 118 116 117 117 95 108 104 100 93 88 82 78 76 71 66 61 53 44 39 35 36 36 28 16 7 360 356 353 352 352 353 350 351
123 123 120 118 118 123 126 123 124 125 123 121 120 119 118 107 105 101 97 91 86 81 76 70 65 60 52 44 37 32 31 26 12 2 351 348 348 348 349 353 347 343 351
127 128 127 127 127 128 123 124 125 125 124 122 122 123 121 114 108 104 100 96 91 85 79 72 68 65 56 41 40 43 39 19 357 352 347 339 342 346 345 342 338 344 341
129 130 129 129 131 130 128 127 128 130 131 129 129 130 127 125 121 117 110 105 100 90 83 76 74 73 65 52 42 41 38 19 359 344 328 327 338 343 339 336 337 335 337
129 129 129 130 132 132 132 132 133 133 132 130 130 131 131 131 127 123 122 117 111 104 96 86 76 71 64 57 57 49 36 11 350 336 323 322 334 344 339 328 331 329 336
Height
1528 1530 1532 1534 1536 1537 1539 1541 1542 1543 1545 1546 1546 1548 1549 1550 1551 1552 1553 1554 1554 1555 1555 1556 1556 1556 1556 1556 1557 1557 1557 1558 1557 1557 1557 1557 1556 1556 1555 1555 1554 1553 1553
1525 1527 1528 1531 1532 1534 1536 1537 1539 1540 1541 1542 1543 1544 1545 1546 1547 1548 1549 1550 1550 1551 1551 1552 1552 1552 1552 1552 1552 1552 1552 1552 1552 1552 1552 1552 1552 1551 1551 1550 1550 1550 1549
1522 1524 1526 1528 1529 1531 1532 1534 1535 1536 1538 1539 1540 1541 1542 1543 1544 1544 1545 1546 1547 1547 1548 1548 1548 1548 1548 1547 1547 1547 1547 1547 1547 1547 1547 1547 1547 1547 1547 1547 1546 1546 1545
1520 1522 1523 1525 1527 1529 1530 1531 1533 1534 1535 1536 1537 1539 1539 1540 1541 1541 1542 1542 1543 1544 1545 1545 1545 1545 1545 1544 1544 1543 1544 1543 1543 1543 1543 1543 1543 1543 1543 1543 1543 1542 1542
1519 1520 1522 1524 1525 1527 1528 1529 1530 1532 1533 1534 1536 1537 1537 1538 1538 1539 1539 1540 1541 1541 1542 1543 1543 1543 1543 1542 1542 1541 1541 1540 1540 1540 1540 1540 1539 1539 1539 1539 1539 1539 1539
1518 1520 1521 1523 1524 1525 1526 1528 1529 1530 1532 1533 1534 1535 1536 1537 1537 1538 1538 1539 1539 1540 1540 1541 1541 1541 1541 1540 1540 1539 1539 1538 1538 1537 1537 1537 1536 1536 1536 1536 1536 1536 1536
1518 1519 1521 1522 1523 1524 1526 1527 1528 1530 1531 1532 1533 1534 1535 1536 1537 1537 1538 1538 1539 1539 1540 1540 1540 1540 1540 1539 1538 1538 1537 1536 1536 1536 1535 1534 1534 1534 1533 1533 1532 1532 1532
1518 1519 1520 1522 1523 1524 1525 1527 1528 1530 1531 1532 1533 1534 1535 1535 1536 1537 1538 1538 1538 1538 1539 1539 1539 1539 1539 1538 1538 1537 1536 1535 1534 1533 1533 1532 1532 1531 1531 1531 1530 1530 1529
1518 1519 1521 1522 1523 1525 1526 1527 1529 1530 1531 1532 1533 1534 1534 1535 1536 1536 1537 1537 1538 1538 1539 1539 1539 1539 1538 1538 1537 1536 1536 1535 1534 1533 1532 1531 1530 1530 1529 1529 1529 1529 1528
1519 1520 1521 1523 1524 1525 1526 1528 1529 1531 1532 1533 1533 1534 1534 1535 1536 1537 1537 1538 1538 1538 1539 1539 1539 1538 1538 1537 1537 1536 1536 1535 1535 1534 1533 1532 1531 1530 1529 1528 1528 1528 1527
1520 1521 1522 1523 1525 1526 1527 1528 1530 1531 1532 1533 1534 1534 1535 1536 1536 1537 1537 1538 1538 1539 1539 1539 1539 1539 1538 1538 1537 1537 1536 1537 1536 1536 1535 1534 1533 1531 1530 1529 1527 1527 1527
1520 1522 1523 1524 1526 1527 1528 1529 1531 1532 1533 1534 1535 1536 1536 1537 1537 1538 1538 1538 1538 1539 1539 1540 1540 1540 1539 1539 1538 1538 1538 1538 1538 1538 1537 1536 1535 1533 1532 1531 1529 1528 1527
1521 1522 1523 1525 1526 1528 1529 1531 1532 1533 1535 1536 1536 1537 1538 1538 1539 1539 1539 1539 1539 1540 1540 1541 1541 1541 1541 1541 1540 1540 1540 1540 1540 1540 1539 1538 1537 1535 1534 1533 1532 1530 1529
1521 1523 1525 1526 1528 1529 1531 1533 1534 1535 1536 1537 1538 1538 1539 1540 1540 1541 1541 1541 1542 1542 1542 1543 1543 1543 1543 1543 1543 1543 1542 1542 1542 1541 1541 1540 1539 1538 1537 1536 1534 1533 1532
1522 1524 1526 1527 1528 1530 1532 1533 1534 1535 1537 1538 1539 1540 1540 1540 1541 1542 1543 1543 1543 1544 1545 1546 1546 1547 1546 1546 1546 1545 1545 1544 1544 1543 1543 1542 1541 1540 1539 1537 1536 1535 1534
1523 1525 1527 1529 1530 1532 1534 1535 1536 1537 1538 1539 1540 1541 1541 1542 1542 1543 1544 1544 1545 1546 1548 1548 1548 1548 1548 1548 1548 1548 1547 1547 1546 1546 1545 1544 1543 1542 1541 1539 1538 1537 1535
1524 1526 1528 1530 1532 1534 1536 1537 1538 1540 1541 1542 1543 1544 1544 1544 1545 1545 1546 1547 1547 1548 1550 1550 1550 1550 1551 1551 1550 1550 1550 1549 1548 1547 1546 1546 1545 1544 1543 1541 1540 1538 1537
1525 1527 1529 1531 1533 1535 1537 1539 1541 1542 1543 1544 1546 1546 1547 1547 1547 1548 1548 1550 1550 1551 1552 1552 1552 1552 1553 1553 1552 1552 1552 1551 1550 1549 1548 1547 1546 1545 1544 1543 1541 1540 1538
1526 1528 1530 1532 1534 1537 1539 1541 1543 1544 1545 1547 1548 1549 1550 1550 1550 1551 1551 1553 1553 1553 1554 1554 1554 1554 1554 1554 1554 1554 1553 1552 1551 1550 1550 1548 1548 1547 1545 1544 1543 1540 1539
1526 1529 1531 1533 1536 1538 1540 1542 1544 1546 1548 1549 1550 1551 1552 1554 1554 1554 1555 1555 1555 1555 1556 1556 1556 1556 1556 1556 1555 1555 1555 1554 1553 1552 1551 1550 1549 1548 1547 1545 1543 1542 1540
1529 1531 1533 1535 1537 1539 1542 1544 1546 1548 1549 1551 1552 1553 1554 1556 1557 1557 1557 1558 1558 1558 1558 1558 1558 1558 1558 1557 1557 1556 1556 1555 1554 1553 1552 1551 1550 1549 1547 1546 1544 1542 1540
1531 1533 1535 1537 1539 1541 1543 1545 1547 1549 1550 1552 1554 1555 1556 1558 1559 1559 1559 1560 1560 1560 1560 1560 1560 1560 1559 1559 1558 1558 1557 1556 1555 1554 1553 1552 1550 1549 1548 1546 1544 1542 1540
1532 1534 1536 1538 1540 1542 1545 1547 1549 1551 1552 1554 1555 1557 1558 1559 1560 1560 1561 1561 1561 1562 1562 1561 1561 1561 1560 1559 1559 1558 1557 1556 1555 1553 1553 1552 1551 1549 1548 1546 1544 1542 1540
1534 1536 1538 1540 1542 1544 1546 1548 1550 1552 1554 1555 1557 1558 1559 1560 1561 1561 1562 1562 1562 1562 1562 1562 1562 1561 1560 1560 1559 1558 1556 1555 1554 1553 1552 1551 1551 1549 1547 1546 1544 1542 1540
1536 1538 1540 1542 1544 1546 1548 1550 1552 1553 1555 1557 1558 1559 1560 1561 1562 1562 1562 1562 1562 1562 1562 1562 1562 1561 1560 1559 1559 1557 1556 1554 1553 1552 1551 1551 1550 1548 1547 1545 1543 1541 1539
1537 1539 1542 1544 1546 1548 1549 1551 1553 1554 1556 1557 1559 1560 1561 1561 1562 1562 1562 1562 1563 1563 1562 1562 1562 1561 1560 1560 1558 1557 1555 1554 1553 1551 1550 1550 1549 1548 1545 1544 1542 1540 1538